Find Starlink 31246

NORAD ID: 58835 Int'l Des: 2024-017 Owner: SPXS Country: US Constellation: starlink operational
LEOCIRCULAR

当前视图

正在加载3D地球...

About Starlink 31246

Starlink 31246 (NORAD 58835) is a starlink constellation satellite (v2 mini) launched Jan 24, 2024 by SPXS of US. It operates in LEO, CIRCULAR orbit with a mass of 730.00 kg.

关于 Starlink 31246

正在加载描述...

即将过境

Passes for default location (London). Set your location on the main map for personalized predictions.

高度历史

Loading altitude history...

两行轨道根数

1 58835U 24017K 26174.99721090 .00002089 00000-0 82649-4 0 9992
2 58835 53.1606 70.4421 0001480 97.5216 262.5953 15.30202587136334
Epoch: Jun 23, 2026 • Age: 32 hours

当前状态

高度 476.6 km
速度 7.63 km/s
星下点 -3.90°S, 147.67°W
发射日期 Jan 24, 2024
运行时间 2.4 years
类型 internet

技术详情

分类 Payload
质量 730.00 kg
干质量 700.00 kg
总质量 730.00 kg
长度 0.30 m
直径 4.10 m
跨度 29.00 m
形状 Box + pan
制造商 SPXS
平台类型 Starlink V2M
阶段状态 In Orbit
所有者/国家 SPXS/US

Most Searched